VE2CSM-13 Weather Reports


time (UTC)temp
F
wind
direction
speed
knots
gust
knots
rain 1hr
in
rain 24hr
in
rain mn
in
humidity
%
barometer
mb
20260505210504 61 297 5.2 12.2 0.01 0.18 0.18 77 1009.5
20260505200503 71 268 4.3 12.2 0.00 0.17 0.17 58 1007.7
20260505190503 69 248 2.6 8.7 0.00 0.17 0.17 68 1008.5
20260505180503 62 239 0.9 2.6 0.05 0.17 0.17 87 1009.1
20260505173502 58 252 0.0 0.9 0.07 0.17 0.17 92 1009.6
20260505170503 58 334 0.0 0.9 0.12 0.12 0.12 91 1010.0
20260505163502 58 296 0.0 0.9 0.10 0.10 0.10 88 1010.3
20260505160502 62 266 0.9 3.5 0.00 0.00 0.00 73 1010.7
20260505150503 66 246 2.6 6.1 0.00 0.01 0.00 60 1010.4
20260505140502 64 193 1.7 5.2 0.00 0.07 0.00 54 1010.8
20260505120502 52 98 0.9 3.5 0.00 0.18 0.00 74 1011.6
20260505113502 49 53 0.9 1.7 0.00 0.18 0.00 78 1011.8
20260505110502 48 11 0.0 1.7 0.00 0.18 0.00 80 1011.6
20260505100503 42 357 0.9 2.6 0.00 0.18 0.00 89 1011.6
20260505090502 42 129 0.0 1.7 0.00 0.18 0.00 91 1011.9
20260505080506 43 58 0.9 2.6 0.00 0.18 0.00 88 1012.4
20260505074902 43 47 0.9 2.6 0.00 0.18 0.00 88 1012.6
20260505073305 43 42 0.9 3.5 0.00 0.18 0.00 88 1012.8
20260505071703 44 61 0.9 6.1 0.00 0.18 0.00 86 1012.7
20260505065303 44 63 0.9 1.7 0.00 0.18 0.00 86 1012.9
20260505064504 44 70 0.0 1.7 0.00 0.18 0.00 87 1013.0
20260505063702 43 51 0.0 1.7 0.00 0.18 0.00 86 1013.1
20260505062902 44 49 0.9 1.7 0.00 0.18 0.00 86 1013.0
20260505062502 44 111 0.0 1.7 0.00 0.18 0.00 85 1013.2
20260505062102 44 111 0.0 1.7 0.00 0.18 0.00 85 1013.2
20260505061702 44 79 0.0 3.5 0.00 0.18 0.00 85 1013.3
20260505061302 44 58 0.0 3.5 0.00 0.18 0.00 85 1013.3
20260505060903 44 58 0.0 3.5 0.00 0.18 0.00 85 1013.3
20260505060702 44 30 0.9 2.6 0.00 0.18 0.00 84 1013.4
20260505060502 44 30 0.9 2.6 0.00 0.18 0.00 84 1013.4
20260505060402 44 30 0.9 2.6 0.00 0.18 0.00 84 1013.4
20260505060302 44 30 0.9 2.6 0.00 0.18 0.00 84 1013.4
20260505060202 44 30 0.9 2.6 0.00 0.18 0.00 84 1013.4
20260505050607 46 86 1.7 6.1 0.00 0.18 0.00 81 1014.1
20260505040607 46 59 0.9 3.5 0.00 0.18 0.00 80 1014.4
20260505033606 46 73 1.7 5.2 0.00 0.18 0.18 80 1014.6
20260505030607 46 82 0.9 2.6 0.00 0.18 0.18 80 1015.0
20260505020607 46 71 0.0 0.9 0.00 0.18 0.18 80 1015.2
20260505013606 46 37 0.0 0.9 0.00 0.18 0.18 80 1015.4
20260505010606 46 111 0.0 0.9 0.00 0.18 0.18 80 1015.6
20260505000607 46 155 0.0 1.7 0.00 0.18 0.18 80 1015.2
20260504230608 49 123 0.9 1.7 0.00 0.18 0.18 72 1014.9
20260504223607 52 211 0.9 3.5 0.00 0.18 0.18 69 1015.0
20260504220607 52 308 0.9 2.6 0.00 0.18 0.18 67 1015.0